MOLNIYA 1-32 (8601 NORAD) Tracking and Keplerian Element Data

This shows tracking and keplerian element data for the satellite.

Feedback or suggestion? Click here.




ElementValue
Catalog8601
NameMOLNIYA 1-32
Epoch Orbit7189
Epoch Day33.89603307
Epoch Year2025
RAAN184.8207
Inclination63.6325
Eccentricity0.674285
Argument of Perigee280.4351
Mean Anonmoly15.303
Mean Motion1.99976729
Decay Rate-5.32E-06
L11 08601U 76006A 25033.89603307 -.00000532 00000+0 00000+0 0 9992
L22 08601 63.6325 184.8207 6742850 280.4351 15.3030 1.99976729 71893



Live tracking and technical data element details for MOLNIYA 1-32 (NORAD 8601). MOLNIYA 1-32 can be tracked NOW for your location showing map with azimuth and elevation plus other details from your city location.







IsCatalogInMostPopularTable: catalog: 8601, numindb: 351
Update: records affected: 1



GetName: 8601 MOLNIYA 1-32

Hit Count: updated at: Thu, 15 May 2025 09:10:13 GMT